Weather History for KRDU - December, 2013

Change the Weather History Date:

Tuesday, December 17, 2013

  Actual Average Record
Temperature  
Mean Temperature 48 °F 43 °F  
Max Temperature 60 °F 53 °F 72 °F (1924)
Min Temperature 35 °F 33 °F 11 °F (1963)
Degree Days  
Heating Degree Days 17 22  
Month to date heating degree days 325 341  
Since 1 July heating degree days 977 922  
Cooling Degree Days 0 0  
Month to date cooling degree days 7 0  
Year to date cooling degree days 1559 1728  
Moisture  
Dew Point 34 °F    
Average Humidity 63    
Maximum Humidity 89    
Minimum Humidity 37    
Precipitation  
Precipitation T in 0.10 in 1.35 in (1890)
Month to date precipitation 1.71 1.68  
Year to date precipitation 46.49 41.95  
Snow  
Snow 0.00 in 0.00 in 7.00 in (1930)
Month to date snowfall 0.0 0.2  
Since 1 July snowfall T 0.3  
Snow Depth 0.00 in    
Sea Level Pressure  
Sea Level Pressure 30.04 in    
Wind  
Wind Speed 7 mph (SW)    
Max Wind Speed 18 mph    
Max Gust Speed 24 mph    
Visibility 10 miles    
Events Rain    
T = Trace of Precipitation, MM = Missing Value Source: NWS Daily Summary

Daily Weather History Graph

Daily Weather History Graph

Search for Another Location

Airport or City:

Trip Planner

Search our weather history database for the weather conditions in past years. The results will help you decide how hot, cold, wet, or windy it might be!

Date:

Astronomy

Dec. 17, 2013 Rise Set
Actual Time 7:19 AM EST 5:03 PM EST
Civil Twilight 6:50 AM EST 5:31 PM EST
Nautical Twilight 6:18 AM EST 6:03 PM EST
Astronomical Twilight 5:47 AM EST 6:35 PM EST
Moon 5:39 PM EST (12/17) 7:16 AM EST (12/17)
Length of Visible Light 10h 40m
Length of Day
9h 43m
Full, 100% of the Moon is Illuminated
Dec 17
Full
Dec 25
Last Quarter
Jan 1
New
Jan 7
First Quarter
Jan 15
Full

Hourly Weather History & Observations

Time (EST) Temp. Windchill Dew Point Humidity Pressure Visibility Wind Dir Wind Speed Gust Speed Precip Events Conditions
12:51 AM 42.1 °F 37.7 °F 33.1 °F 70% 30.11 in 10.0 mi SW 6.9 mph - N/A   Partly Cloudy
1:51 AM 39.9 °F 35.8 °F 33.1 °F 77% 30.12 in 10.0 mi SW 5.8 mph - N/A   Partly Cloudy
2:51 AM 37.9 °F 34.4 °F 32.0 °F 79% 30.12 in 10.0 mi WSW 4.6 mph - N/A   Partly Cloudy
3:51 AM 36.0 °F 31.1 °F 32.0 °F 86% 30.12 in 10.0 mi SW 5.8 mph - N/A   Scattered Clouds
4:51 AM 37.9 °F - 32.0 °F 79% 30.12 in 10.0 mi Calm Calm - N/A   Partly Cloudy
5:51 AM 36.0 °F 33.3 °F 30.9 °F 82% 30.12 in 10.0 mi SW 3.5 mph - N/A   Mostly Cloudy
6:51 AM 37.0 °F - 32.0 °F 82% 30.12 in 10.0 mi Calm Calm - N/A   Mostly Cloudy
7:51 AM 37.9 °F 35.5 °F 32.0 °F 79% 30.12 in 10.0 mi SSW 3.5 mph - N/A   Mostly Cloudy
8:51 AM 41.0 °F 35.2 °F 34.0 °F 76% 30.12 in 10.0 mi SW 9.2 mph - N/A   Mostly Cloudy
9:51 AM 46.9 °F - 34.0 °F 61% 30.13 in 10.0 mi SW 5.8 mph - N/A   Scattered Clouds
10:51 AM 51.1 °F - 34.0 °F 52% 30.10 in 10.0 mi SW 4.6 mph - N/A   Scattered Clouds
11:51 AM 55.0 °F - 34.0 °F 45% 30.06 in 10.0 mi SW 5.8 mph - N/A   Scattered Clouds
12:51 PM 59.0 °F - 34.0 °F 39% 30.01 in 10.0 mi SW 10.4 mph - N/A   Scattered Clouds
1:51 PM 59.0 °F - 35.1 °F 41% 29.98 in 10.0 mi SW 9.2 mph 16.1 mph N/A   Mostly Cloudy
2:51 PM 60.1 °F - 35.1 °F 39% 29.96 in 10.0 mi WSW 10.4 mph - N/A   Partly Cloudy
3:51 PM 59.0 °F - 35.1 °F 41% 29.94 in 10.0 mi SSW 9.2 mph - N/A   Partly Cloudy
4:51 PM 55.9 °F - 33.1 °F 42% 29.94 in 10.0 mi SW 8.1 mph - N/A   Partly Cloudy
5:51 PM 53.1 °F - 34.0 °F 48% 29.91 in 10.0 mi South 6.9 mph - N/A   Partly Cloudy
6:51 PM 54.0 °F - 35.1 °F 49% 29.89 in 10.0 mi SSW 12.7 mph - N/A   Partly Cloudy
7:51 PM 51.1 °F - 34.0 °F 52% 29.90 in 10.0 mi SW 11.5 mph - N/A   Partly Cloudy
8:51 PM 55.0 °F - 33.1 °F 43% 29.93 in 10.0 mi West 10.4 mph 17.3 mph 0.00 in Rain Light Rain
9:51 PM 55.0 °F - 33.1 °F 43% 29.98 in 10.0 mi NNW 8.1 mph 18.4 mph 0.00 in   Mostly Cloudy
10:51 PM 46.9 °F - 37.0 °F 68% 30.02 in 10.0 mi Calm Calm - N/A   Mostly Cloudy
11:51 PM 44.1 °F 42.5 °F 37.0 °F 76% 30.03 in 10.0 mi North 3.5 mph - N/A   Partly Cloudy